Weather Roundup
Issued by NWS Springfield, MO

Home | Current Version | Previous Version | Text Only | Print | Product List | Glossary On
Versions: 1 2 3 4 5 6 7 8 9 10 11 12 13 14 15 16 17 18 19 20 21 22 23 24 25 26 27 28 29 30 31 32 33 34 35 36 37 38 39 40 41 42 43 44 45 46 47 48 49 50
000
NZUS99 KSGF 300259
HRRSGF

HOURLY WEATHER
NATIONAL WEATHER SERVICE SPRINGFIELD MO
1000 PM CDT MON JUN 29 2015

......SGF CWA......

CITY           SKY/WX    TMP DP  RH WIND       PRES   REMARKS
SPRINGFIELD    CLEAR     71  66  84 SW5       29.95R
JOPLIN         CLEAR     72  66  81 S3        29.95R
WEST PLAINS    CLEAR     72  64  76 NW5       29.95R
ROLLA          CLEAR     69  66  90 W6        29.90R
OSAGE BEACH    CLEAR     72  66  83 W3        29.91R

......SURROUNDING SGF CWA......

CITY           SKY/WX    TMP DP  RH WIND       PRES   REMARKS
CHANUTE        CLEAR     71  65  81 S3        29.94R
PARSONS        CLEAR     70  67  90 CALM      29.95R
COFFEYVILLE    CLEAR     74  65  73 CALM      29.93R
EMPORIA        CLEAR     73  62  68 S6        29.94R
SILOAM SPRINGS CLEAR     70  63  78 CALM      29.98R
HARRISON AR    CLEAR     69  67  93 W5        29.97R
NEAR YELLVILLE CLEAR     75  64  69 CALM      29.91R

......KANSAS AND MISSOURI......

CITY           SKY/WX    TMP DP  RH WIND       PRES   REMARKS
KANSAS CTY INT MOCLDY    79  63  57 CALM      29.92R
DOWNTOWN KC    LGT RAIN  79  68  69 CALM      29.90R
COLUMBIA       CLEAR     75  67  76 W5        29.89R
SEDALIA        CLEAR     75  65  70 W5        29.92R
ST JOSEPH      CLEAR     75  69  81 N3        29.91R
ST LOUIS       MOCLDY    76  66  71 SW3       29.87R
SPIRIT OF STL  MOCLDY    72  71  97 CALM      29.86R
KIRKSVILLE     CLEAR     69  65  86 W3        29.89R
WICHITA        PTCLDY    79  59  50 SE5       29.95R
TOPEKA         CLEAR     76  67  73 CALM      29.92R
OLATHE         CLEAR     74  65  73 CALM      29.92R

......TENNESSEE......

CITY           SKY/WX    TMP DP  RH WIND       PRES   REMARKS
MEMPHIS        MOCLDY    83  70  64 SW7       29.89R
NASHVILLE      TSTM      72  71  97 SW8       29.93R

......ARKANSAS.......

CITY           SKY/WX    TMP DP  RH WIND       PRES   REMARKS
FAYETTEVILLE   CLEAR     69  68  96 S6        29.98R
FT SMITH       CLEAR     81  66  60 N5        29.92R
LITTLE ROCK    PTCLDY    84  72  67 W6        29.90R

......OKLAHOMA.......

CITY           SKY/WX    TMP DP  RH WIND       PRES   REMARKS
TULSA          CLOUDY    80  63  55 CALM      29.94R
PONCA CITY     CLEAR     79  61  53 S3        29.96R
MCALESTER      MOCLDY    78  60  53 SW9G22    29.97R
OKLAHOMA CITY  MOCLDY    69  64  84 S6        29.96R

......IOWA............

CITY           SKY/WX    TMP DP  RH WIND       PRES   REMARKS
DES MOINES     CLOUDY    73  65  75 W3        29.86S
QUAD CITIES    TSTM      67  62  84 NW28G46   29.84R

......ILLINOIS........

CITY           SKY/WX    TMP DP  RH WIND       PRES   REMARKS
QUINCY         CLEAR     68  65  90 SW5       29.86R
CHICAGO        PTCLDY    66  64  93 SW3       29.80R



USA.gov is the U.S. government's official web portal to all federal, state and local government web resources and services.